Probability
0 0 0 0 0 0 0 0 0 0 0 0 0 0 0 0 0 0 0 0 0 0 0 0 0 0 0 0 0 1 1 1 0 0 0 0 0 0 0 1 0 0 0 0
0 0 0 0 0 0 0 0 0 0 0 0 0 0 0 0 0 0 0 0 0 0 0 0 0 0 0 0 0 0 1 2 1 1 0 0 1 1 1 2 1 0 0 0
0 0 0 0 0 0 0 0 0 0 0 0 0 0 0 0 0 0 0 0 0 0 0 0 0 0 0 0 1 1 1 2 2 2 1 1 1 2 2 2 2 1 1 0
0 0 0 0 0 0 0 0 0 0 0 0 0 0 0 0 0 0 0 0 0 0 0 0 0 0 0 0 1 1 1 2 3 3 2 1 1 1 1 2 3 3 2 1
0 0 0 0 0 0 0 0 0 0 0 0 0 0 0 0 0 0 0 0 0 0 0 0 0 0 0 0 1 1 2 3 4 5 4 3 2 1 1 2 3 3 3 3
0 0 0 0 0 0 0 0 0 0 0 0 0 0 0 0 0 0 0 0 0 0 0 0 0 0 0 0 0 0 1 3 5 5 5 4 3 3 3 4 4 3 3 3
0 0 0 0 0 0 0 0 0 0 0 0 0 0 0 0 0 0 0 0 0 0 0 0 0 0 0 0 0 0 0 1 3 4 5 5 4 4 4 5 5 4 3 3
0 0 0 0 0 0 0 0 0 0 0 0 0 0 0 0 0 0 0 0 0 0 0 0 0 0 0 0 0 0 0 0 1 2 3 4 4 4 4 4 5 5 4 3
0 0 0 0 0 0 0 0 0 0 0 0 0 0 0 0 0 0 0 0 0 0 0 0 0 0 0 0 0 0 0 0 0 0 1 1 2 2 3 2 3 4 3 3
0 0 0 0 0 0 0 0 0 0 0 0 0 0 0 0 0 0 0 0 0 0 0 0 0 0 0 0 0 0 0 0 0 0 0 0 0 1 2 1 1 3 3 3
0 0 0 0 0 0 0 0 0 0 0 0 0 0 0 0 0 0 0 0 0 0 0 0 0 0 0 0 0 0 0 0 0 0 0 0 0 1 2 2 2 3 4 4
0 0 0 0 0 0 0 0 0 0 0 0 0 0 0 0 0 0 0 0 0 0 0 0 0 0 0 0 0 0 0 0 0 1 0 0 0 1 2 2 3 3 3 3
0 0 0 0 0 0 0 0 0 0 0 0 0 0 0 0 0 0 0 0 0 0 0 0 0 0 0 0 0 0 0 0 0 0 0 0 0 1 1 1 2 2 2 1
0 0 0 0 0 0 0 0 0 0 0 0 0 0 0 0 0 0 0 0 0 0 0 0 0 0 0 0 0 0 0 0 0 0 0 0 0 0 0 0 1 1 0 0
0 0 0 0 0 0 0 0 0 0 0 0 0 0 0 0 0 0 0 0 0 0 0 0 0 0 0 0 0 0 0 0 0 0 0 0 0 1 0 0 0 0 0 0
0 0 0 0 0 0 0 0 0 0 0 0 0 0 0 0 0 0 0 0 0 0 0 0 0 0 0 0 0 0 0 0 0 0 0 0 0 0 0 0 0 0 0 0
0 0 0 0 0 0 0 0 0 0 0 0 0 0 0 0 0 0 0 0 0 0 0 0 0 0 0 0 0 0 0 0 0 0 0 0 0 0 0 0 0 0 0 0
0 0 0 0 0 0 0 0 0 0 0 0 0 0 0 0 0 0 0 0 0 0 0 0 0 0 0 0 0 0 0 0 0 0 0 0 0 0 0 0 0 0 0 0
0 0 0 0 0 0 0 0 0 0 0 0 0 0 0 0 0 0 0 0 0 0 0 0 0 0 0 0 0 0 0 0 0 0 0 0 0 0 0 0 0 0 0 0
0 0 0 0 0 0 0 0 0 0 0 0 0 0 0 0 0 0 0 0 0 0 0 0 0 0 0 0 0 0 0 0 0 0 0 0 0 0 0 0 0 0 0 0
0 0 0 0 0 0 0 0 0 0 0 0 0 0 0 0 0 0 0 0 0 0 0 0 0 0 0 0 0 0 0 0 0 0 0 0 0 0 0 0 0 0 0 0
0 0 0 0 0 0 0 0 0 0 0 0 0 0 0 0 0 0 0 0 0 0 0 0 0 0 0 0 0 0 0 0 0 0 0 0 0 0 0 0 0 0 0 0
0 0 0 0 0 0 0 0 0 0 0 0 0 0 0 0 0 0 0 0 0 0 0 0 0 0 0 0 0 0 0 0 0 0 0 0 0 0 0 0 0 0 0 0
0 0 0 0 0 0 0 0 0 0 0 0 0 0 0 0 0 0 0 0 0 0 0 0 0 0 0 0 0 0 0 0 0 0 0 0 0 0 0 0 0 0 0 0
0 0 0 0 0 0 0 0 0 0 0 0 0 0 0 0 0 0 0 0 0 0 0 0 0 0 0 0 0 0 0 0 0 0 0 0 0 0 0 0 0 0 0 0
0 0 0 0 0 0 0 0 0 0 0 0 0 0 0 0 0 0 0 0 0 0 0 0 0 0 0 0 0 0 0 0 0 0 0 0 0 0 0 0 0 0 0 0
Wind_Speed
1 3 7 8 9 5 3 4 5 4 3 3 8 10 9 6 5 6 7 7 7 9 8 5 4 4 4 5 6 7 8 8 7 6 7 7 8 7 6 7 7 8 8 9
0 7 6 4 4 5 5 6 5 3 2 3 5 10 8 8 8 8 9 8 8 7 6 5 3 3 5 6 7 7 8 8 8 8 6 5 5 5 5 5 6 8 9 9
6 4 2 4 5 6 7 7 5 3 3 2 3 8 7 7 7 7 7 8 7 8 8 6 4 4 4 6 7 7 8 8 9 8 4 3 3 3 4 5 6 7 7 7
4 3 3 4 6 5 8 4 4 4 3 4 2 7 6 6 6 7 8 6 7 7 6 5 4 4 4 6 5 6 6 6 7 7 7 8 8 8 8 6 5 5 6 7
4 2 3 5 6 5 4 1 3 4 4 5 4 6 7 3 7 8 7 5 4 4 4 4 4 4 4 4 3 4 4 5 5 6 8 9 8 8 5 4 4 5 5 6
4 3 3 4 3 4 2 1 2 1 2 8 8 7 8 5 7 4 4 3 3 2 2 2 3 2 2 3 2 2 3 4 3 5 6 8 9 8 6 5 5 5 4 4
3 3 2 2 1 2 2 3 1 2 4 8 4 7 9 5 4 3 2 2 2 1 1 2 3 3 3 3 3 2 2 3 3 3 5 6 8 8 8 7 6 5 4 4
1 4 3 2 4 4 5 5 5 5 4 4 3 8 7 3 2 0 1 1 3 3 3 3 3 2 2 3 3 2 2 2 2 2 3 4 5 5 5 6 5 5 4 5
2 4 3 3 3 5 3 4 3 1 1 3 5 6 7 2 2 2 2 4 4 4 4 4 4 3 3 3 3 3 2 3 3 2 1 1 2 3 4 4 4 4 3 3
1 3 4 3 0 1 3 3 2 3 4 5 5 5 5 2 2 2 2 2 3 4 4 4 4 4 4 4 4 4 3 3 2 2 2 1 1 1 2 2 2 3 4 3
1 1 4 1 2 3 2 2 3 2 3 4 4 6 4 4 2 2 3 3 3 3 3 3 3 3 3 4 4 5 4 4 4 4 3 2 2 2 1 1 1 2 2 2
1 1 2 4 3 2 2 3 3 3 4 4 4 7 2 1 2 2 4 4 3 2 2 3 3 3 4 4 4 4 4 4 4 4 3 3 2 2 2 2 1 1 1 1
0 1 2 5 3 2 0 1 2 2 2 4 5 8 2 3 5 5 5 5 4 3 3 3 3 3 4 4 4 4 4 4 4 4 3 3 3 3 2 2 2 1 1 1
0 2 4 5 4 2 4 4 4 4 4 6 8 9 8 7 7 8 7 5 4 3 3 3 3 3 4 4 4 4 4 4 4 4 3 3 3 3 3 3 2 2 1 1
1 1 3 5 6 4 7 9 7 9 9 9 9 10 11 7 6 6 6 5 4 5 4 4 4 4 4 4 4 4 4 4 4 4 3 3 3 3 3 3 3 2 1 1
1 1 1 5 5 5 8 11 10 10 9 10 11 13 8 6 4 4 5 5 5 5 5 5 4 4 4 4 4 5 4 4 4 3 3 4 4 3 3 3 3 2 2 1
1 1 0 4 5 4 8 9 8 6 6 7 10 10 5 4 5 5 5 4 5 5 5 5 4 4 4 4 3 4 4 4 3 3 3 3 3 3 3 3 3 2 2 2
3 2 1 1 3 6 8 2 4 6 7 7 7 7 5 6 6 5 3 3 5 5 5 5 4 5 4 3 3 3 3 3 3 3 3 3 3 4 3 3 3 3 2 2
5 4 2 1 3 10 9 4 3 5 7 5 7 8 7 5 4 3 3 2 4 4 4 4 4 4 3 3 3 3 3 3 3 3 4 4 4 4 4 3 3 2 2 2
3 4 3 2 3 8 8 3 2 1 6 4 4 5 6 3 4 5 3 3 4 4 3 3 3 3 3 3 2 2 3 3 4 4 4 4 4 4 4 4 3 2 2 2
2 3 5 5 6 11 8 3 2 3 6 3 3 4 3 3 5 6 5 4 4 4 4 3 3 2 3 2 2 3 3 4 4 4 4 4 4 4 4 3 2 2 1 1
6 5 6 5 6 11 4 2 5 6 4 3 3 4 5 6 7 6 6 5 4 4 4 4 3 4 3 1 2 3 4 4 3 3 4 4 4 3 2 2 2 1 1 1
7 8 6 9 10 6 3 5 5 3 5 5 5 6 6 7 8 7 6 5 5 5 5 3 3 4 3 2 2 4 4 3 3 3 4 4 3 3 2 1 1 1 1 1
6 3 5 7 10 9 7 6 6 6 7 7 6 6 6 8 9 8 7 6 6 5 5 4 3 4 4 3 3 4 3 2 2 3 4 3 2 2 2 1 1 1 1 1
8 4 5 10 10 8 8 8 8 8 7 7 7 7 7 8 9 8 7 7 6 6 5 3 4 5 5 4 4 3 3 2 2 3 3 3 2 2 2 2 2 2 2 2
8 9 9 11 9 7 8 6 5 6 8 8 8 9 7 7 9 8 7 6 6 6 5 5 5 5 5 4 5 4 3 2 3 3 3 2 2 2 2 2 2 3 3 3
Wind_Direction
168 192 220 220 219 235 216 219 241 251 250 208 236 254 264 270 264 260 258 250 249 250 253 255 240 227 219 216 213 213 206 206 193 194 200 204 213 213 212 213 210 206 206 205
172 234 241 248 243 242 232 240 246 281 297 240 253 263 259 247 242 237 241 244 242 251 269 264 255 243 225 223 219 219 217 209 203 205 203 204 202 207 211 209 209 209 207 205
218 243 231 239 240 233 238 230 231 257 319 299 297 283 254 248 242 247 241 238 240 236 246 256 253 245 239 233 228 224 223 218 211 206 190 184 189 198 204 210 213 213 210 208
244 238 229 241 240 224 245 230 227 239 250 264 213 273 265 244 252 249 247 241 241 246 247 252 253 255 248 245 239 234 230 226 217 201 197 198 205 215 217 213 212 208 206 210
243 206 206 230 238 220 238 245 228 234 231 254 228 250 276 247 244 248 249 248 248 245 246 256 258 255 260 257 247 240 238 233 221 206 205 207 215 221 218 198 201 207 209 212
262 259 227 225 239 202 214 324 307 243 217 246 221 223 270 228 227 249 255 258 262 267 264 283 311 330 322 316 299 257 237 238 222 210 208 208 214 217 208 203 207 211 212 215
297 275 254 196 208 209 184 154 197 226 220 244 210 218 252 248 243 232 258 275 291 324 340 347 350 354 348 339 329 307 265 256 241 217 217 218 220 218 216 212 210 210 214 217
275 278 238 196 198 200 206 184 187 206 221 259 218 232 254 269 277 342 11 360 4 358 358 355 345 351 344 347 355 358 346 307 298 250 235 233 228 222 224 220 213 211 216 219
226 271 275 232 203 168 177 211 203 190 303 270 253 272 293 311 9 23 25 19 358 345 348 350 353 359 4 7 6 10 14 7 4 351 304 263 254 237 228 220 213 213 215 214
202 276 301 307 49 183 175 160 147 175 195 244 267 255 245 277 297 339 359 346 321 328 349 355 359 4 6 6 9 18 24 16 4 7 351 354 345 306 254 227 224 224 223 214
134 219 310 340 201 201 166 179 189 189 191 198 253 262 230 214 223 270 288 293 304 324 337 342 346 353 3 10 15 16 13 9 6 2 357 4 356 342 340 316 249 244 246 226
270 142 272 263 265 243 200 195 185 203 237 219 241 267 318 207 282 302 306 315 331 330 335 338 339 354 4 6 8 9 8 7 359 357 360 2 4 9 359 335 320 329 306 279
236 128 346 340 348 18 165 207 206 223 227 213 222 264 308 350 340 335 330 331 337 341 344 349 354 355 353 355 1 3 4 1 359 3 3 3 1 2 348 333 336 349 343 321
38 164 184 216 244 280 282 271 230 202 224 238 236 260 293 317 323 323 323 320 321 321 323 332 337 341 344 349 352 353 353 356 359 2 3 357 345 338 333 332 335 338 336 323
85 204 239 260 272 269 265 264 247 225 221 230 249 255 271 281 288 293 297 304 317 321 321 320 323 330 339 342 341 345 346 352 355 356 356 345 339 340 341 338 334 335 340 327
17 231 273 282 282 280 274 265 252 246 237 240 256 265 263 271 276 284 287 290 296 299 304 310 317 325 323 323 326 331 335 340 348 345 339 341 344 343 340 330 329 331 329 336
296 146 312 279 312 335 277 252 236 229 226 224 243 258 280 292 288 281 280 284 288 292 299 302 305 304 305 305 313 315 319 329 336 332 331 336 333 331 327 326 330 324 320 328
202 184 213 287 14 253 251 258 231 236 252 244 248 264 268 268 272 268 261 266 285 296 300 299 299 298 299 307 315 317 320 321 322 323 325 330 328 321 324 327 324 323 325 313
204 184 191 196 251 276 290 273 208 215 261 248 252 272 278 286 302 285 266 257 264 273 282 285 286 286 297 310 318 322 319 318 317 315 318 321 318 314 315 311 309 309 312 306
176 182 183 191 221 250 261 266 236 180 278 263 251 276 290 312 302 284 305 305 291 292 295 300 304 305 308 312 323 306 297 300 298 305 312 314 310 303 298 294 296 299 289 286
155 190 209 217 238 260 263 266 130 178 256 267 259 277 279 253 250 276 295 291 284 287 292 299 302 296 292 303 310 292 289 286 299 311 310 309 307 301 295 295 294 288 285 289
196 200 213 201 228 256 253 155 193 231 260 273 269 265 265 268 277 283 283 285 290 292 292 294 297 294 296 294 283 280 281 297 312 308 303 302 303 299 298 299 303 301 281 264
217 206 202 205 226 250 215 217 242 252 267 271 268 273 269 277 283 287 285 286 287 285 285 288 285 288 291 283 264 273 289 308 307 302 295 296 299 299 293 280 284 297 284 262
252 228 231 256 261 263 262 261 265 263 261 270 273 276 273 273 280 284 285 289 288 285 281 281 280 281 284 284 275 268 287 295 285 285 287 287 288 295 298 288 264 258 252 246
234 211 233 254 267 282 267 252 258 267 272 276 279 273 269 270 277 278 280 284 286 287 284 274 268 273 278 285 278 275 280 276 271 274 277 278 272 267 274 277 268 267 259 244
208 205 219 246 245 243 263 261 257 261 270 273 279 283 277 268 273 278 277 279 282 283 283 278 273 273 278 281 280 280 277 257 248 260 262 261 263 260 261 277 295 283 276 276